Weather in Lodz

2320 UTC 15 October 2019 EPLL 152300Z VRB02KT 9999 MIFG NSC 13/10 Q1009

Where pilots are born

  • Michele from Italy

    „The best”

  • Maciej from UK

    “Great place, good aircrafts and amazing atmosphere!!!”

  • Alan from Ireland

    “Fantastic flight school . Fleet of aircraft are exceptional . Instructors are second to none . I couldn't speak any higher...

22000+

Operations per year

1500+

Number of trained pilots

55+

Nationality students

How to join the training?